Location: Erba
(45.8000°N, 9.2500°E)
Time: 22:00:45
(UTC+02:00)

ISS - Visible Passes

Search period start: 29 July 2021 00:00
Search period end: 08 August 2021 00:00
Orbit: 419 x 421 km, 51.6° (Epoch: 29 July)

Date Brightness Start Highest point End Pass type
(mag) Time Alt. Az. Time Alt. Az. Time Alt. Az.
29 Jul -1.0 00:01:12 10° W 00:01:36 12° WSW 00:01:36 12° WSW visible
29 Jul -3.4 21:36:08 10° WNW 21:39:30 63° NNE 21:42:51 10° ESE visible
29 Jul -2.1 23:13:19 10° W 23:15:55 23° SW 23:15:55 23° SW visible
30 Jul -2.8 22:25:44 10° WNW 22:28:54 37° SW 22:30:18 24° S visible
31 Jul -3.4 21:38:18 10° WNW 21:41:38 58° SW 21:44:43 12° SE visible
01 Aug -1.4 22:28:43 10° W 22:30:43 15° SW 22:32:09 12° SSW visible
02 Aug -1.9 21:40:48 10° W 21:43:34 23° SW 21:46:17 10° SSE visible
